{"data":{"norad_id":56934,"intl_designator":"2023-084C","name":"GEISAT PRECURSOR","alt_names":[],"object_type":"PAYLOAD","status":"ACTIVE","operator":null,"country":"SPN","launch_date":"2023-06-12","launch_site_code":"AFWTR","launch_vehicle":null,"mission":null,"orbit_class":"UNKNOWN","rcs_meters":null,"size_class":null,"mass_kg":null,"dimensions":null,"purposes":[],"wikipedia_slug":null,"has_3d_model":false,"image_url":null,"decayed_at":null,"tle_current":{"epoch":"2026-05-25T04:47:24.450720Z","epoch_age_seconds":54501,"freshness":"FRESH","line1":"1 56934U 23084C   26145.19958855  .00007520  00000+0  22890-3 0  9999","line2":"2 56934  97.6189 285.4068 0006978  74.7440 285.4574 15.34287808164000","mean_motion":15.34287808,"eccentricity":0.0006978,"inclination_deg":97.6189,"raan_deg":285.4068,"arg_perigee_deg":74.744,"mean_anomaly_deg":285.4574,"bstar":0.0002289,"rev_number":16400,"period_min":93.854620527624,"perigee_km":458.26294777296,"apogee_km":467.81048981491,"semimajor_km":6841.1737187939,"source":"CELESTRAK","updated_at":"2026-05-25T13:37:59.783723Z"}}}